[[[{"header":{"parameterUnit":"kt","parameterCategory":2,"dx":1,"dy":1,"la1":30.253999710083008,"la2":30.299108505249023,"lo1":-89.0895004272461,"lo2":-89.04439544677734,"nx":28,"ny":28,"refTime":"2022-10-24T21:00:00:Z","depth":0,"parameterNumber":1,"parameterNumberName":"U-component_of_WINDS"},"data":[-10.7014,-10.7191,-10.7261,-10.7495,-10.7597,-10.7768,-10.7852,-10.7967,-10.8076,-10.8288,-10.8422,-10.8509,-10.8643,-10.8819,-10.8967,-10.9002,-10.9058,-10.9073,-10.911,-10.8987,-10.8974,-10.8962,-10.8923,-10.9085,-10.9085,-10.9226,-10.9227,-10.9228,-10.6924,-10.7027,-10.7171,-10.7357,-10.7481,-10.7511,-10.7661,-10.7761,-10.7913,-10.8048,-10.8184,-10.8375,-10.8535,-10.8666,-10.8831,-10.8914,-10.8935,-10.8954,-10.8946,-10.8966,-10.8839,-10.8797,-10.8934,-10.8934,-10.8934,-10.8934,-10.8934,-10.8934,-10.6777,-10.688,-10.7032,-10.7189,-10.7302,-10.7426,-10.7535,-10.764,-10.778,-10.796,-10.8014,-10.8186,-10.8333,-10.8563,-10.8656,-10.8792,-10.8782,-10.8823,-10.8832,-10.8839,-10.8839,-10.8624,-10.8823,-10.8823,-10.8823,-10.8823,-10.8823,0,-10.6689,-10.674,-10.6881,-10.7045,-10.7162,-10.7295,-10.7427,-10.7497,-10.7624,-10.7735,-10.79,-10.8006,-10.8216,-10.8378,-10.8546,-10.8635,-10.867,-10.8683,-10.871,-10.8683,-10.864,-10.8662,-10.8448,-10.8674,-10.8673,-10.8672,-10.8672,-10.8671,-10.6542,-10.6655,-10.6846,-10.6937,-10.7025,-10.7169,-10.7269,-10.7373,-10.7473,-10.765,-10.7735,-10.79,-10.8035,-10.8287,-10.8403,-10.8559,-10.8576,-10.8655,-10.8599,-10.8572,-10.8574,-10.8564,-10.8575,-10.8661,-10.8662,-10.8663,-10.8664,0,-10.6453,-10.6564,-10.6759,-10.6936,-10.6984,-10.7096,-10.7247,-10.7354,-10.7442,-10.76,-10.7643,-10.7779,-10.7938,-10.8042,-10.8243,-10.8292,-10.8477,-10.8493,-10.8428,-10.8435,-10.8514,-10.8504,-10.8757,-10.8795,-10.8633,-10.8634,-10.8636,0,-10.6369,-10.6512,-10.6667,-10.6774,-10.6938,-10.7037,-10.7195,-10.7285,-10.7411,-10.7537,-10.7596,-10.7712,-10.7826,-10.7958,-10.803,-10.82,-10.8239,-10.8285,-10.8301,-10.8277,-10.827,-10.8325,-10.8315,-10.8337,-10.8336,-10.8335,-10.8334,0,-10.6214,-10.6464,-10.664,-10.6714,-10.6914,-10.6995,-10.7081,-10.7223,-10.7318,-10.7458,-10.7521,-10.7677,-10.7761,-10.7881,-10.797,-10.7929,-10.8182,-10.8142,-10.8228,-10.8225,-10.8272,-10.8267,-10.8472,-10.8332,-10.8331,-10.8331,-10.8331,0,-10.616,-10.6301,-10.6539,-10.6707,-10.6768,-10.6883,-10.7043,-10.7166,-10.731,-10.7363,-10.7474,-10.7522,-10.768,-10.7634,-10.7853,-10.7773,-10.7853,-10.7912,-10.792,-10.7934,-10.7877,-10.7974,-10.8162,-10.8184,-10.7957,-10.7954,-10.7951,0,-10.5951,-10.622,-10.6305,-10.6529,-10.6666,-10.6723,-10.6853,-10.6978,-10.7059,-10.7187,-10.7276,-10.742,-10.7407,-10.7465,-10.7561,-10.7657,-10.7762,-10.7647,-10.7825,-10.783,-10.7782,-10.7958,-10.7957,-10.8111,-10.7913,-10.7917,-10.792,0,-10.5801,-10.6043,-10.6076,-10.6164,-10.6345,-10.6459,-10.6609,-10.6773,-10.6853,-10.6987,-10.7113,-10.7318,-10.7317,-10.7411,-10.7466,-10.756,-10.7694,-10.7543,-10.7548,-10.7564,-10.7902,-10.7901,-10.7927,-10.771,-10.7715,-10.7719,-10.7889,0,-10.5691,-10.5838,-10.5935,-10.6123,-10.6228,-10.6373,-10.6481,-10.6577,-10.6619,-10.6699,-10.6887,-10.7013,-10.7176,-10.7233,-10.7273,-10.7456,-10.7439,-10.7434,-10.739,-10.7507,-10.7565,-10.7589,-10.7296,-10.7295,-10.7294,-10.7294,0,0,-10.5462,-10.5674,-10.5759,-10.5907,-10.6,-10.6052,-10.6197,-10.6294,-10.6485,-10.6548,-10.6526,-10.6831,-10.6932,-10.7147,-10.7192,-10.7259,-10.73,-10.7253,-10.7452,-10.7469,-10.7485,-10.7545,-10.7569,-10.7293,-10.7293,-10.7293,-10.7293,0,-10.5442,-10.5548,-10.569,-10.5795,-10.5952,-10.6029,-10.6064,-10.6227,-10.6284,-10.6467,-10.6504,-10.6629,-10.6867,-10.697,-10.7053,-10.7233,-10.725,-10.7276,-10.7336,-10.7443,-10.746,-10.7476,-10.7539,-10.7561,-10.7291,-10.7291,-10.7291,0,-10.531,-10.5432,-10.5512,-10.5726,-10.5827,-10.5966,-10.5949,-10.6096,-10.6199,-10.6242,-10.6422,-10.6505,-10.665,-10.684,-10.6929,-10.691,-10.7199,-10.7126,-10.7132,-10.7142,-10.725,-10.7271,-10.729,-10.7038,-10.7037,-10.7036,0,0,-10.5278,-10.5414,-10.5573,-10.5728,-10.5791,-10.5907,-10.599,-10.6039,-10.6169,-10.6221,-10.6326,-10.645,-10.6591,-10.668,-10.6816,-10.701,-10.7046,-10.709,-10.7102,-10.7112,-10.7126,-10.7236,-10.7257,-10.7031,-10.7031,-10.7031,0,0,-10.5261,-10.5451,-10.547,-10.5664,-10.5789,-10.5952,-10.6042,-10.6069,-10.6202,-10.6196,-10.6283,-10.6319,-10.6498,-10.6576,-10.6499,-10.6801,-10.6757,-10.6778,-10.6742,-10.6759,-10.6771,-10.6746,-10.6494,0,0,0,0,0,-10.5293,-10.5428,-10.5443,-10.5492,-10.5759,-10.5944,-10.5979,-10.6054,-10.6023,-10.6093,-10.6186,-10.6199,-10.6553,-10.6487,-10.6532,-10.6615,-10.6967,-10.6978,-10.6989,-10.699,-10.7006,-10.7019,0,0,0,0,0,0,-10.5312,-10.5371,-10.544,-10.5608,-10.5669,-10.594,-10.5902,-10.5927,-10.6017,-10.6017,-10.6181,-10.6204,-10.627,-10.6469,-10.6508,-10.6586,-10.6481,-10.6972,-10.6981,-10.699,-10.6995,-10.7008,-10.702,0,0,0,0,0,-10.5328,-10.5375,-10.5784,-10.5606,-10.5659,-10.5793,-10.5898,-10.5918,-10.5989,-10.613,-10.6153,-10.6038,-10.627,-10.6309,-10.6493,-10.6566,-10.6454,-10.6468,-10.6978,-10.6985,-10.6992,-10.7002,0,0,0,0,0,0,-10.534,-10.5395,-10.5796,-10.5815,-10.556,-10.5779,-10.5816,-10.591,-10.6097,-10.6122,-10.599,-10.5988,-10.6272,-10.6302,-10.6332,-10.6555,-10.6431,-10.6446,-10.6456,-10.6984,-10.6989,-10.6995,0,0,0,0,0,0,-10.537,-10.541,-10.5806,-10.5743,-10.5755,-10.5766,-10.5799,-10.5965,-10.6099,-10.5947,-10.5951,-10.5987,-10.6227,-10.6298,-10.6321,-10.6576,-10.6415,-10.6429,-10.6439,-10.6445,-10.6988,-10.6993,0,0,0,0,0,0,-10.5388,-10.5423,-10.5738,-10.5748,-10.5758,-10.5976,-10.5914,-10.6182,-10.6047,-10.5938,-10.6037,-10.6032,-10.6222,-10.6247,-10.6313,-10.6559,-10.6572,-10.6415,-10.6425,-10.6432,-10.6436,0,0,0,0,0,0,0,-10.5403,-10.5152,-10.5684,-10.5752,-10.5761,-10.5989,-10.5995,-10.6,-10.6046,-10.6042,-10.6038,-10.6034,-10.6334,-10.6349,-10.6365,-10.6544,0,0,-10.6414,-10.6421,0,0,0,0,0,0,0,0,-10.5139,-10.5149,-10.5685,-10.5689,-10.5693,-10.599,-10.5994,-10.5999,-10.6045,-10.6042,-10.6039,-10.6036,-10.6338,-10.635,-10.6363,0,0,0,0,0,0,0,0,0,0,0,0,0,0,0,-10.5685,-10.5689,0,-10.5991,-10.5994,-10.5998,-10.6045,-10.6042,-10.6039,-10.6037,-10.6341,-10.6352,-10.6362,0,0,0,0,0,0,0,0,0,0,0,0,0,0,0,0,0,0,0,0,0,0,0,0,0,0,0,0,0,0,0,0,0,0,0,0,0,0,0,0,0,0,0,0,0,0,0,0,0,0,0,0,0,0,0,0,0,0,0,0,0,0,0,0,0,0,0,0,0]}],[{"header":{"parameterUnit":"kt","parameterCategory":2,"dx":1,"dy":1,"la1":30.253999710083008,"la2":30.299108505249023,"lo1":-89.0895004272461,"lo2":-89.04439544677734,"nx":28,"ny":28,"refTime":"2022-10-24T21:00:00:Z","depth":0,"parameterNumber":2,"parameterNumberName":"V-component_of_WINDS"},"data":[7.0468,7.0473,7.0507,7.0528,7.0561,7.0583,7.0601,7.0628,7.0658,7.0688,7.0711,7.0745,7.0789,7.0825,7.0853,7.0867,7.0878,7.0857,7.0878,7.094,7.0951,7.0962,7.0964,7.0858,7.0858,7.081,7.0809,7.0809,7.0519,7.0552,7.0572,7.0614,7.0632,7.0674,7.0711,7.0723,7.0741,7.0777,7.08,7.0829,7.0855,7.0906,7.0938,7.0943,7.0964,7.0949,7.095,7.0957,7.1025,7.1026,7.0932,7.0932,7.0932,7.0932,7.0932,7.0932,7.0621,7.0621,7.0665,7.0687,7.0717,7.0745,7.0752,7.0793,7.0813,7.0848,7.0882,7.0902,7.0945,7.0997,7.1022,7.104,7.1062,7.1056,7.1055,7.1053,7.1049,7.1121,7.1046,7.1046,7.1047,7.1047,7.1047,0,7.0706,7.0734,7.0753,7.0784,7.0801,7.0828,7.0857,7.0862,7.0931,7.0943,7.0966,7.0984,7.102,7.1045,7.108,7.1108,7.1152,7.1158,7.1155,7.114,7.1125,7.1137,7.1249,7.116,7.1161,7.1162,7.1163,7.1163,7.0814,7.0808,7.0869,7.0879,7.0903,7.0916,7.0932,7.0992,7.1006,7.1051,7.1048,7.1073,7.1096,7.1125,7.1172,7.1199,7.122,7.1184,7.1224,7.1212,7.1224,7.1225,7.1227,7.1175,7.1173,7.1172,7.1171,0,7.0872,7.0925,7.0926,7.0986,7.1001,7.0993,7.1045,7.1047,7.1085,7.1093,7.1099,7.1159,7.1178,7.1231,7.1263,7.129,7.1282,7.1301,7.127,7.1278,7.1253,7.1256,7.1156,7.1148,7.1255,7.1254,7.1253,0,7.0986,7.0975,7.1055,7.1053,7.1044,7.1105,7.1095,7.1127,7.1162,7.1169,7.1226,7.1231,7.1297,7.1311,7.135,7.1352,7.1357,7.1379,7.139,7.1375,7.1373,7.1384,7.139,7.141,7.1411,7.1411,7.1411,0,7.1074,7.1101,7.1098,7.1113,7.1174,7.1171,7.1196,7.1235,7.1249,7.1274,7.1284,7.1308,7.1322,7.1341,7.1392,7.1418,7.1394,7.144,7.1417,7.1416,7.1409,7.1409,7.1307,7.1412,7.1412,7.1412,7.1412,0,7.1174,7.1198,7.1183,7.1237,7.1241,7.1237,7.1267,7.1276,7.1312,7.1337,7.1357,7.1401,7.1403,7.1447,7.1453,7.1473,7.1484,7.1505,7.1504,7.1508,7.1555,7.1494,7.1389,7.1382,7.1513,7.1514,7.1514,0,7.1263,7.126,7.1312,7.1295,7.1302,7.1368,7.1365,7.1394,7.1427,7.1438,7.1474,7.1484,7.1527,7.1538,7.1533,7.1571,7.1544,7.1576,7.1594,7.1594,7.1586,7.1489,7.1462,7.1406,7.1525,7.1524,7.1523,0,7.1338,7.141,7.1403,7.1424,7.1471,7.1475,7.147,7.1494,7.1499,7.1523,7.1523,7.1536,7.1571,7.1586,7.1623,7.1616,7.1564,7.1653,7.1654,7.1638,7.1533,7.1509,7.1499,7.1591,7.159,7.1589,7.1532,0,7.1485,7.1488,7.147,7.1508,7.1519,7.1509,7.1564,7.1568,7.1604,7.1638,7.1636,7.167,7.1692,7.1692,7.1724,7.169,7.1704,7.1739,7.1785,7.1719,7.1703,7.1695,7.1806,7.1808,7.1809,7.1811,0,0,7.1558,7.1564,7.1617,7.1614,7.1627,7.1693,7.1679,7.1698,7.1735,7.1743,7.1769,7.1792,7.1817,7.1809,7.1793,7.1799,7.1799,7.1818,7.1749,7.1742,7.1736,7.1717,7.1708,7.1813,7.1814,7.1814,7.1814,0,7.1623,7.1648,7.1632,7.1655,7.1691,7.1727,7.1723,7.1769,7.1789,7.1785,7.1839,7.1843,7.1856,7.1878,7.1891,7.1821,7.1861,7.1822,7.1769,7.1761,7.1752,7.1745,7.1724,7.1715,7.1818,7.1818,7.1817,0,7.171,7.1744,7.1741,7.177,7.1793,7.1795,7.1858,7.1856,7.1859,7.1928,7.1922,7.1947,7.1979,7.1961,7.1955,7.1978,7.1914,7.1941,7.1934,7.1934,7.193,7.1919,7.1909,7.2036,7.2037,7.2038,0,0,7.1758,7.176,7.1814,7.1787,7.1799,7.185,7.1856,7.1891,7.1918,7.1928,7.1961,7.1986,7.1995,7.1999,7.201,7.1982,7.1995,7.1966,7.1956,7.1947,7.1943,7.1936,7.1925,7.204,7.204,7.204,0,0,7.1781,7.1843,7.1874,7.1849,7.1874,7.1924,7.1907,7.1945,7.196,7.1967,7.2025,7.2033,7.2017,7.2038,7.2061,7.2028,7.2072,7.2068,7.2014,7.2002,7.1992,7.1988,7.2128,0,0,0,0,0,7.1875,7.1836,7.1863,7.1867,7.1901,7.191,7.1914,7.1962,7.1994,7.198,7.2014,7.2055,7.2064,7.2085,7.2088,7.2062,7.2067,7.2062,7.2058,7.1983,7.1969,7.1958,0,0,0,0,0,0,7.1877,7.1881,7.1865,7.1912,7.192,7.1911,7.1977,7.1989,7.1997,7.2005,7.2047,7.2056,7.2096,7.2087,7.2089,7.2063,7.2128,7.2065,7.2061,7.2057,7.1978,7.1967,7.1958,0,0,0,0,0,7.1878,7.1882,7.1924,7.1913,7.192,7.1975,7.1979,7.1989,7.1996,7.2047,7.2058,7.2032,7.2094,7.2098,7.2088,7.2061,7.2127,7.2128,7.2062,7.2059,7.2056,7.1973,0,0,0,0,0,0,7.188,7.1891,7.1927,7.1931,7.1931,7.1976,7.1985,7.1989,7.2039,7.2049,7.2035,7.2041,7.2092,7.2096,7.2099,7.2058,7.2127,7.2127,7.2127,7.206,7.2057,7.2055,0,0,0,0,0,0,7.189,7.1894,7.1929,7.1948,7.1955,7.1977,7.1985,7.1982,7.2038,7.2024,7.203,7.2037,7.2087,7.2094,7.2096,7.2089,7.2126,7.2127,7.2127,7.2127,7.2058,7.2056,0,0,0,0,0,0,7.1893,7.1897,7.1948,7.1953,7.1959,7.2007,7.1976,7.2008,7.2056,7.202,7.2062,7.2064,7.2083,7.2087,7.2094,7.2086,7.2089,7.2126,7.2127,7.2127,7.2127,0,0,0,0,0,0,0,7.1895,7.1858,7.1903,7.1956,7.1962,7.1968,7.1969,7.197,7.2057,7.2059,7.2061,7.2063,7.2124,7.2125,7.2125,7.2083,0,0,7.2126,7.2126,0,0,0,0,0,0,0,0,7.1857,7.1858,7.1903,7.1904,7.1905,7.1968,7.1969,7.197,7.2057,7.2059,7.2061,7.2062,7.2124,7.2125,7.2125,0,0,0,0,0,0,0,0,0,0,0,0,0,0,0,7.1903,7.1904,0,7.1968,7.1969,7.1969,7.2057,7.2059,7.206,7.2062,7.2124,7.2125,7.2125,0,0,0,0,0,0,0,0,0,0,0,0,0,0,0,0,0,0,0,0,0,0,0,0,0,0,0,0,0,0,0,0,0,0,0,0,0,0,0,0,0,0,0,0,0,0,0,0,0,0,0,0,0,0,0,0,0,0,0,0,0,0,0,0,0,0,0,0,0]}]]]